13:19
Airports
History
Links
Donate
Help keep this website running!
PayPal
Bitcoin
This page is community maintained. The information is intended for PC simulator navigation or reference.
Always use approved charts for navigation.
VA76
Baskerville
Baskerville (VA76)
McKenney, Virginia, United States (23872)
4
Lat/Lng:36° 59' 15.54" N / 77° 46' 17.98" W
36.987649 / -77.771662
Elevation:250'ft / 76mMSL
ID / ICAO:VA76
Runways:1
Longest:09-27
Grass 370m / 1,214ft
Nearby Weather13:15 GMT 2017-10-17
Nearby weather at KPTB, Dinwiddie County located 19.9 nautical miles from VA76
Altimeter: 30.37
Visibility: 10.0 statute miles
Wind: 7 knots (from 030°)
Temp: 9°c / 48°f
Humidity: 70.8%

METAR: KPTB 171315Z AUTO 03007KT 10SM CLR 09/04 A3037 RMK AO2 T00930038

(Powered by phpweather)
Nearby VORs <50NM
Nearby NDBs
Runway 09 / 27
Dimensions:370.1 x 18.3m 1214' x 60'ft
Surface:Grass
Runway 09 [A]Runway 27 [B]
Heading:081°TH 261°TH
Lat:
Lng:
36° 59' 14.71"N
77° 46' 25.33"W
36° 59' 16.36"N
77° 46' 10.64"W
User Notes and Comments
36° 59' 15.54" N / 77° 46' 17.98" W
Distance To
Airport ID:
Nearby Airports
(C) Allen C Perkinson Blackstone A 11.8 NM
KBKT WNW 300°
(U) Lawrenceville/brunswick Muni 14.9 NM
KLVL S 184°
(U) Dinwiddie County 19.9 NM
KPTB ( WX ) NE 47°
(U) Crewe Muni 22.4 NM
W81 NW 306°
(U) Lunenburg County 22.9 NM
W31 W 265°
(R) Mazza 23.4 NM
VA73 NE 40°
(U) Mecklenburg-brunswick Rgnl 25.9 NM
KAVC SW 217°
VFR Chart
Flight Planning at SkyVector.com